Time,TemperatureF,DewpointF,PressureIn,WindDirection,WindDirectionDegrees,WindSpeedMPH,WindSpeedGustMPH,Humidity,HourlyPrecipIn,Conditions,Clouds,dailyrainin,SolarRadiationWatts/m^2,SoftwareType,DateUTC
2013-09-23 00:01:00,52.5,48.1,29.72,West,263,1.0,3.0,85,0.00,,,0.00,0,Wunderground v.1.15,2013-09-23 04:01:00,
2013-09-23 00:02:00,52.4,48.0,29.72,West,273,1.0,3.0,85,0.00,,,0.00,0,Wunderground v.1.15,2013-09-23 04:02:00,
2013-09-23 00:03:00,52.4,48.0,29.72,NNW,340,1.0,3.0,85,0.00,,,0.00,0,Wunderground v.1.15,2013-09-23 04:03:00,
2013-09-23 00:05:00,52.4,48.0,29.72,NE,48,1.0,3.0,85,0.00,,,0.00,0,Wunderground v.1.15,2013-09-23 04:05:00,
2013-09-23 00:10:00,52.3,47.9,29.72,NE,35,1.0,1.0,85,0.00,,,0.00,0,Wunderground v.1.15,2013-09-23 04:10:00,
2013-09-23 00:15:00,52.1,47.7,29.72,NNE,23,1.0,4.0,85,0.00,,,0.00,0,Wunderground v.1.15,2013-09-23 04:15:00,
2013-09-23 00:20:00,52.1,47.7,29.72,NNW,327,2.0,2.0,85,0.00,,,0.00,0,Wunderground v.1.15,2013-09-23 04:20:00,
2013-09-23 00:25:00,52.0,47.6,29.72,NW,308,1.0,2.0,85,0.00,,,0.00,0,Wunderground v.1.15,2013-09-23 04:25:00,
2013-09-23 00:31:00,51.8,47.4,29.73,NW,309,1.0,1.0,85,0.00,,,0.00,0,Wunderground v.1.15,2013-09-23 04:31:00,
2013-09-23 00:37:00,51.6,47.5,29.73,NNE,23,1.0,3.0,86,0.00,,,0.00,0,Wunderground v.1.15,2013-09-23 04:37:00,
2013-09-23 00:42:00,51.4,47.4,29.73,NNW,344,1.0,1.0,86,0.00,,,0.00,0,Wunderground v.1.15,2013-09-23 04:42:00,
2013-09-23 00:48:00,51.3,47.3,29.73,East,85,1.0,2.0,86,0.00,,,0.00,0,Wunderground v.1.15,2013-09-23 04:48:00,
2013-09-23 00:53:00,51.2,47.2,29.73,North,11,1.0,1.0,86,0.00,,,0.00,0,Wunderground v.1.15,2013-09-23 04:53:00,
2013-09-23 00:59:00,51.0,47.0,29.74,West,265,0.0,5.0,86,0.00,,,0.00,0,Wunderground v.1.15,2013-09-23 04:59:00,
2013-09-23 01:04:00,50.9,46.9,29.74,NW,306,1.0,2.0,86,0.00,,,0.00,0,Wunderground v.1.15,2013-09-23 05:04:00,
2013-09-23 01:10:00,50.9,46.9,29.74,West,259,2.0,2.0,86,0.00,,,0.00,0,Wunderground v.1.15,2013-09-23 05:10:00,
2013-09-23 01:15:00,50.8,46.8,29.74,NE,41,2.0,2.0,86,0.00,,,0.00,0,Wunderground v.1.15,2013-09-23 05:15:00,
2013-09-23 01:21:00,50.8,46.8,29.74,NW,310,2.0,2.0,86,0.00,,,0.00,0,Wunderground v.1.15,2013-09-23 05:21:00,
2013-09-23 01:27:00,50.6,46.6,29.74,NW,315,2.0,4.0,86,0.00,,,0.00,0,Wunderground v.1.15,2013-09-23 05:27:00,
2013-09-23 01:32:00,50.5,46.2,29.74,NW,325,2.0,2.0,85,0.00,,,0.00,0,Wunderground v.1.15,2013-09-23 05:32:00,
2013-09-23 01:37:00,50.5,46.2,29.74,NNE,22,2.0,6.0,85,0.00,,,0.00,0,Wunderground v.1.15,2013-09-23 05:37:00,
2013-09-23 01:42:00,50.4,45.7,29.74,NNE,19,2.0,2.0,84,0.00,,,0.00,0,Wunderground v.1.15,2013-09-23 05:42:00,
2013-09-23 01:48:00,50.3,45.6,29.74,NE,34,2.0,6.0,84,0.00,,,0.00,0,Wunderground v.1.15,2013-09-23 05:48:00,
2013-09-23 01:53:00,50.2,45.6,29.74,West,273,2.0,7.0,84,0.00,,,0.00,0,Wunderground v.1.15,2013-09-23 05:53:00,
2013-09-23 01:58:00,50.1,45.1,29.74,WNW,303,2.0,7.0,83,0.00,,,0.00,0,Wunderground v.1.15,2013-09-23 05:58:00,
2013-09-23 02:04:00,50.0,45.0,29.74,WSW,238,2.0,2.0,83,0.00,,,0.00,0,Wunderground v.1.15,2013-09-23 06:04:00,
2013-09-23 02:09:00,49.9,44.9,29.74,NNE,12,1.0,4.0,83,0.00,,,0.00,0,Wunderground v.1.15,2013-09-23 06:09:00,
2013-09-23 02:14:00,49.8,44.8,29.74,NW,304,1.0,8.0,83,0.00,,,0.00,0,Wunderground v.1.15,2013-09-23 06:14:00,
2013-09-23 02:19:00,49.7,44.7,29.74,West,270,2.0,8.0,83,0.00,,,0.00,0,Wunderground v.1.15,2013-09-23 06:19:00,
2013-09-23 02:25:00,49.5,44.9,29.75,NW,317,2.0,4.0,84,0.00,,,0.00,0,Wunderground v.1.15,2013-09-23 06:25:00,
2013-09-23 02:30:00,49.4,44.8,29.75,NNW,338,1.0,2.0,84,0.00,,,0.00,0,Wunderground v.1.15,2013-09-23 06:30:00,
2013-09-23 02:35:00,49.3,44.7,29.74,WNW,301,1.0,5.0,84,0.00,,,0.00,0,Wunderground v.1.15,2013-09-23 06:35:00,
2013-09-23 02:40:00,49.1,44.5,29.75,WNW,289,1.0,1.0,84,0.00,,,0.00,0,Wunderground v.1.15,2013-09-23 06:40:00,
2013-09-23 02:45:00,49.0,44.7,29.75,NNE,25,1.0,2.0,85,0.00,,,0.00,0,Wunderground v.1.15,2013-09-23 06:45:00,
2013-09-23 02:51:00,48.8,44.5,29.75,NW,307,1.0,2.0,85,0.00,,,0.00,0,Wunderground v.1.15,2013-09-23 06:51:00,
2013-09-23 02:56:00,48.7,44.4,29.75,NNW,328,1.0,3.0,85,0.00,,,0.00,0,Wunderground v.1.15,2013-09-23 06:56:00,
2013-09-23 03:02:00,48.6,44.3,29.75,NW,305,2.0,5.0,85,0.00,,,0.00,0,Wunderground v.1.15,2013-09-23 07:02:00,
2013-09-23 03:07:00,48.5,44.2,29.75,NW,326,1.0,5.0,85,0.00,,,0.00,0,Wunderground v.1.15,2013-09-23 07:07:00,
2013-09-23 03:12:00,48.3,44.0,29.75,NW,312,0.0,1.0,85,0.00,,,0.00,0,Wunderground v.1.15,2013-09-23 07:12:00,
2013-09-23 03:18:00,48.2,44.2,29.76,NNW,342,1.0,3.0,86,0.00,,,0.00,0,Wunderground v.1.15,2013-09-23 07:18:00,
2013-09-23 03:23:00,48.1,44.1,29.76,NNW,335,1.0,2.0,86,0.00,,,0.00,0,Wunderground v.1.15,2013-09-23 07:23:00,
2013-09-23 03:28:00,48.0,44.0,29.76,WNW,301,1.0,2.0,86,0.00,,,0.00,0,Wunderground v.1.15,2013-09-23 07:28:00,
2013-09-23 03:34:00,47.9,43.6,29.76,North,355,1.0,1.0,85,0.00,,,0.00,0,Wunderground v.1.15,2013-09-23 07:34:00,
2013-09-23 03:40:00,47.9,43.6,29.76,North,350,1.0,2.0,85,0.00,,,0.00,0,Wunderground v.1.15,2013-09-23 07:40:00,
2013-09-23 03:45:00,47.9,43.6,29.76,South,190,1.0,3.0,85,0.00,,,0.00,0,Wunderground v.1.15,2013-09-23 07:45:00,
2013-09-23 03:51:00,47.8,43.5,29.76,WNW,296,1.0,2.0,85,0.00,,,0.00,0,Wunderground v.1.15,2013-09-23 07:51:00,
2013-09-23 03:56:00,47.7,43.1,29.76,WNW,300,1.0,2.0,84,0.00,,,0.00,0,Wunderground v.1.15,2013-09-23 07:56:00,
2013-09-23 04:02:00,47.7,42.8,29.76,NW,312,1.0,5.0,83,0.00,,,0.00,0,Wunderground v.1.15,2013-09-23 08:02:00,
2013-09-23 04:07:00,47.7,42.8,29.75,NW,317,1.0,5.0,83,0.00,,,0.00,0,Wunderground v.1.15,2013-09-23 08:07:00,
2013-09-23 04:12:00,47.6,42.7,29.75,West,274,0.0,1.0,83,0.00,,,0.00,0,Wunderground v.1.15,2013-09-23 08:12:00,
2013-09-23 04:17:00,47.6,42.7,29.75,WNW,289,0.0,1.0,83,0.00,,,0.00,0,Wunderground v.1.15,2013-09-23 08:17:00,
2013-09-23 04:22:00,47.4,42.8,29.75,WNW,301,1.0,3.0,84,0.00,,,0.00,0,Wunderground v.1.15,2013-09-23 08:22:00,
2013-09-23 04:28:00,47.3,42.7,29.76,WNW,298,1.0,3.0,84,0.00,,,0.00,0,Wunderground v.1.15,2013-09-23 08:28:00,
2013-09-23 04:33:00,47.1,42.5,29.76,WNW,283,2.0,6.0,84,0.00,,,0.00,0,Wunderground v.1.15,2013-09-23 08:33:00,
2013-09-23 04:39:00,47.0,42.7,29.76,North,351,2.0,7.0,85,0.00,,,0.00,0,Wunderground v.1.15,2013-09-23 08:39:00,
2013-09-23 04:44:00,46.9,42.6,29.76,North,355,1.0,1.0,85,0.00,,,0.00,0,Wunderground v.1.15,2013-09-23 08:44:00,
2013-09-23 04:50:00,46.8,42.5,29.76,NNW,327,1.0,1.0,85,0.00,,,0.00,0,Wunderground v.1.15,2013-09-23 08:50:00,
2013-09-23 04:55:00,46.7,42.4,29.76,West,262,1.0,4.0,85,0.00,,,0.00,0,Wunderground v.1.15,2013-09-23 08:55:00,
2013-09-23 05:01:00,46.6,42.3,29.77,North,360,1.0,2.0,85,0.00,,,0.00,0,Wunderground v.1.15,2013-09-23 09:01:00,
2013-09-23 05:06:00,46.6,42.3,29.76,NW,318,2.0,8.0,85,0.00,,,0.00,0,Wunderground v.1.15,2013-09-23 09:06:00,
2013-09-23 05:12:00,46.7,42.4,29.77,West,259,2.0,9.0,85,0.00,,,0.00,0,Wunderground v.1.15,2013-09-23 09:12:00,
2013-09-23 05:17:00,46.9,42.3,29.77,NW,322,3.0,9.0,84,0.00,,,0.00,0,Wunderground v.1.15,2013-09-23 09:17:00,
2013-09-23 05:22:00,46.9,42.0,29.77,North,355,3.0,3.0,83,0.00,,,0.00,0,Wunderground v.1.15,2013-09-23 09:22:00,
2013-09-23 05:27:00,46.9,42.0,29.77,WNW,284,3.0,6.0,83,0.00,,,0.00,0,Wunderground v.1.15,2013-09-23 09:27:00,
2013-09-23 05:32:00,46.9,41.7,29.78,ESE,113,2.0,4.0,82,0.00,,,0.00,0,Wunderground v.1.15,2013-09-23 09:32:00,
2013-09-23 05:37:00,46.9,41.7,29.78,West,277,2.0,6.0,82,0.00,,,0.00,0,Wunderground v.1.15,2013-09-23 09:37:00,
2013-09-23 05:42:00,46.8,41.6,29.78,NNW,331,2.0,2.0,82,0.00,,,0.00,0,Wunderground v.1.15,2013-09-23 09:42:00,
2013-09-23 05:47:00,46.8,41.6,29.78,West,281,2.0,4.0,82,0.00,,,0.00,0,Wunderground v.1.15,2013-09-23 09:47:00,
2013-09-23 05:52:00,46.6,41.4,29.78,WNW,286,1.0,1.0,82,0.00,,,0.00,0,Wunderground v.1.15,2013-09-23 09:52:00,
2013-09-23 05:58:00,46.4,41.2,29.78,NW,317,1.0,5.0,82,0.00,,,0.00,0,Wunderground v.1.15,2013-09-23 09:58:00,
2013-09-23 06:03:00,46.3,41.4,29.79,NW,317,1.0,3.0,83,0.00,,,0.00,0,Wunderground v.1.15,2013-09-23 10:03:00,
2013-09-23 06:08:00,46.1,41.2,29.79,NW,319,1.0,4.0,83,0.00,,,0.00,0,Wunderground v.1.15,2013-09-23 10:08:00,
2013-09-23 06:14:00,46.0,41.1,29.78,North,9,1.0,1.0,83,0.00,,,0.00,0,Wunderground v.1.15,2013-09-23 10:14:00,
2013-09-23 06:19:00,45.8,40.9,29.78,WNW,298,0.0,3.0,83,0.00,,,0.00,0,Wunderground v.1.15,2013-09-23 10:19:00,
2013-09-23 06:24:00,45.6,41.0,29.79,WNW,294,1.0,2.0,84,0.00,,,0.00,0,Wunderground v.1.15,2013-09-23 10:24:00,
2013-09-23 06:29:00,45.5,40.9,29.79,WNW,298,0.0,2.0,84,0.00,,,0.00,5,Wunderground v.1.15,2013-09-23 10:29:00,
2013-09-23 06:34:00,45.3,40.7,29.80,WNW,292,0.0,1.0,84,0.00,,,0.00,7,Wunderground v.1.15,2013-09-23 10:34:00,
2013-09-23 06:40:00,45.1,40.9,29.80,West,259,1.0,1.0,85,0.00,,,0.00,9,Wunderground v.1.15,2013-09-23 10:40:00,
2013-09-23 06:45:00,44.9,41.0,29.80,WNW,291,1.0,4.0,86,0.00,,,0.00,11,Wunderground v.1.15,2013-09-23 10:45:00,
2013-09-23 06:51:00,44.8,40.9,29.80,WNW,290,1.0,1.0,86,0.00,,,0.00,12,Wunderground v.1.15,2013-09-23 10:51:00,
2013-09-23 06:57:00,44.7,41.1,29.80,North,360,0.0,3.0,87,0.00,,,0.00,14,Wunderground v.1.15,2013-09-23 10:57:00,
2013-09-23 07:02:00,44.6,41.0,29.80,NE,48,1.0,1.0,87,0.00,,,0.00,16,Wunderground v.1.15,2013-09-23 11:02:00,
2013-09-23 07:07:00,44.6,41.0,29.81,NW,325,1.0,2.0,87,0.00,,,0.00,26,Wunderground v.1.15,2013-09-23 11:07:00,
2013-09-23 07:12:00,44.6,41.0,29.81,NNW,333,1.0,1.0,87,0.00,,,0.00,28,Wunderground v.1.15,2013-09-23 11:12:00,
2013-09-23 07:18:00,44.7,41.1,29.81,North,5,1.0,3.0,87,0.00,,,0.00,23,Wunderground v.1.15,2013-09-23 11:18:00,
2013-09-23 07:23:00,44.8,41.2,29.81,WNW,296,1.0,2.0,87,0.00,,,0.00,23,Wunderground v.1.15,2013-09-23 11:23:00,
2013-09-23 07:28:00,45.0,41.4,29.81,West,280,1.0,4.0,87,0.00,,,0.00,25,Wunderground v.1.15,2013-09-23 11:28:00,
2013-09-23 07:33:00,45.1,41.2,29.81,NNW,343,1.0,2.0,86,0.00,,,0.00,23,Wunderground v.1.15,2013-09-23 11:33:00,
2013-09-23 07:38:00,45.4,41.5,29.81,West,262,1.0,3.0,86,0.00,,,0.00,25,Wunderground v.1.15,2013-09-23 11:38:00,
2013-09-23 07:43:00,45.6,41.4,29.81,NW,324,1.0,3.0,85,0.00,,,0.00,26,Wunderground v.1.15,2013-09-23 11:43:00,
2013-09-23 07:48:00,45.9,41.3,29.81,NNW,342,1.0,3.0,84,0.00,,,0.00,26,Wunderground v.1.15,2013-09-23 11:48:00,
2013-09-23 07:54:00,46.2,41.6,29.81,West,281,1.0,2.0,84,0.00,,,0.00,67,Wunderground v.1.15,2013-09-23 11:54:00,
2013-09-23 07:59:00,46.4,41.5,29.81,West,281,1.0,2.0,83,0.00,,,0.00,32,Wunderground v.1.15,2013-09-23 11:59:00,
2013-09-23 08:04:00,46.7,41.8,29.82,NNE,16,1.0,3.0,83,0.00,,,0.00,42,Wunderground v.1.15,2013-09-23 12:04:00,
2013-09-23 08:10:00,47.1,41.9,29.82,NW,306,3.0,3.0,82,0.00,,,0.00,70,Wunderground v.1.15,2013-09-23 12:10:00,
2013-09-23 08:15:00,47.4,41.9,29.82,North,360,3.0,7.0,81,0.00,,,0.00,28,Wunderground v.1.15,2013-09-23 12:15:00,
2013-09-23 08:21:00,47.8,41.9,29.81,NNW,342,3.0,3.0,80,0.00,,,0.00,65,Wunderground v.1.15,2013-09-23 12:21:00,
2013-09-23 08:26:00,48.1,42.2,29.82,WSW,241,3.0,4.0,80,0.00,,,0.00,269,Wunderground v.1.15,2013-09-23 12:26:00,
2013-09-23 08:32:00,48.6,42.4,29.81,WNW,287,3.0,7.0,79,0.00,,,0.00,287,Wunderground v.1.15,2013-09-23 12:32:00,
2013-09-23 08:38:00,49.0,42.1,29.81,North,5,4.0,7.0,77,0.00,,,0.00,302,Wunderground v.1.15,2013-09-23 12:38:00,
2013-09-23 08:44:00,49.5,42.6,29.82,NNE,22,4.0,7.0,77,0.00,,,0.00,320,Wunderground v.1.15,2013-09-23 12:44:00,
2013-09-23 08:49:00,49.9,42.3,29.82,NW,319,4.0,15.0,75,0.00,,,0.00,338,Wunderground v.1.15,2013-09-23 12:49:00,
2013-09-23 08:54:00,50.3,42.7,29.82,NNE,26,5.0,11.0,75,0.00,,,0.00,387,Wunderground v.1.15,2013-09-23 12:54:00,
2013-09-23 08:59:00,50.7,43.1,29.82,NNE,22,4.0,11.0,75,0.00,,,0.00,364,Wunderground v.1.15,2013-09-23 12:59:00,
2013-09-23 09:04:00,51.0,43.0,29.82,ESE,123,4.0,10.0,74,0.00,,,0.00,383,Wunderground v.1.15,2013-09-23 13:04:00,
2013-09-23 09:10:00,51.4,43.0,29.82,North,11,4.0,5.0,73,0.00,,,0.00,429,Wunderground v.1.15,2013-09-23 13:10:00,
2013-09-23 09:15:00,51.4,42.3,29.83,NNE,26,5.0,8.0,71,0.00,,,0.00,441,Wunderground v.1.15,2013-09-23 13:15:00,
2013-09-23 09:21:00,51.4,42.3,29.82,NNW,333,7.0,7.0,71,0.00,,,0.00,441,Wunderground v.1.15,2013-09-23 13:21:00,
2013-09-23 09:26:00,51.8,42.7,29.83,NNE,16,6.0,10.0,71,0.00,,,0.00,468,Wunderground v.1.15,2013-09-23 13:26:00,
2013-09-23 09:31:00,51.9,42.4,29.82,WSW,258,7.0,16.0,70,0.00,,,0.00,533,Wunderground v.1.15,2013-09-23 13:31:00,
2013-09-23 09:36:00,52.3,43.5,29.82,SW,233,6.0,16.0,72,0.00,,,0.00,547,Wunderground v.1.15,2013-09-23 13:36:00,
2013-09-23 09:42:00,53.0,44.2,29.82,North,360,3.0,5.0,72,0.00,,,0.00,554,Wunderground v.1.15,2013-09-23 13:42:00,
2013-09-23 09:47:00,53.4,43.5,29.83,NNW,341,4.0,8.0,69,0.00,,,0.01,587,Wunderground v.1.15,2013-09-23 13:47:00,
2013-09-23 09:53:00,53.1,42.8,29.83,North,355,6.0,8.0,68,0.00,,,0.01,522,Wunderground v.1.15,2013-09-23 13:53:00,
2013-09-23 09:58:00,53.0,43.1,29.83,WNW,293,6.0,9.0,69,0.00,,,0.01,499,Wunderground v.1.15,2013-09-23 13:58:00,
2013-09-23 10:03:00,52.8,42.9,29.83,North,5,6.0,6.0,69,0.00,,,0.01,643,Wunderground v.1.15,2013-09-23 14:03:00,
2013-09-23 10:09:00,52.9,43.0,29.83,WNW,300,6.0,8.0,69,0.00,,,0.01,362,Wunderground v.1.15,2013-09-23 14:09:00,
2013-09-23 10:14:00,53.1,43.2,29.83,SSW,213,5.0,8.0,69,0.00,,,0.01,425,Wunderground v.1.15,2013-09-23 14:14:00,
2013-09-23 10:19:00,53.1,42.8,29.83,NNW,343,5.0,12.0,68,0.00,,,0.01,587,Wunderground v.1.15,2013-09-23 14:19:00,
2013-09-23 10:25:00,53.3,43.0,29.83,NW,313,5.0,16.0,68,0.00,,,0.01,575,Wunderground v.1.15,2013-09-23 14:25:00,
2013-09-23 10:30:00,53.4,43.1,29.83,NNE,16,6.0,6.0,68,0.00,,,0.01,573,Wunderground v.1.15,2013-09-23 14:30:00,
2013-09-23 10:35:00,53.7,43.0,29.83,North,5,6.0,9.0,67,0.00,,,0.01,591,Wunderground v.1.15,2013-09-23 14:35:00,
2013-09-23 10:40:00,53.9,42.8,29.82,North,355,7.0,10.0,66,0.00,,,0.01,599,Wunderground v.1.15,2013-09-23 14:40:00,
2013-09-23 10:46:00,54.1,43.4,29.82,WNW,302,6.0,10.0,67,0.00,,,0.01,603,Wunderground v.1.15,2013-09-23 14:46:00,
2013-09-23 10:51:00,54.6,43.9,29.82,NW,308,4.0,4.0,67,0.00,,,0.01,626,Wunderground v.1.15,2013-09-23 14:51:00,
2013-09-23 10:56:00,55.1,44.3,29.83,WNW,300,4.0,6.0,67,0.00,,,0.01,640,Wunderground v.1.15,2013-09-23 14:56:00,
2013-09-23 11:01:00,55.3,44.5,29.83,North,360,3.0,6.0,67,0.00,,,0.01,230,Wunderground v.1.15,2013-09-23 15:01:00,
2013-09-23 11:06:00,55.1,44.3,29.83,North,355,3.0,8.0,67,0.00,,,0.01,197,Wunderground v.1.15,2013-09-23 15:06:00,
2013-09-23 11:11:00,55.0,43.4,29.83,West,268,4.0,9.0,65,0.00,,,0.01,214,Wunderground v.1.15,2013-09-23 15:11:00,
2013-09-23 11:17:00,55.1,43.9,29.83,NW,324,6.0,15.0,66,0.00,,,0.01,677,Wunderground v.1.15,2013-09-23 15:17:00,
2013-09-23 11:22:00,55.5,43.9,29.83,North,355,6.0,6.0,65,0.00,,,0.01,740,Wunderground v.1.15,2013-09-23 15:22:00,
2013-09-23 11:28:00,55.7,44.1,29.83,NW,309,5.0,12.0,65,0.00,,,0.01,714,Wunderground v.1.15,2013-09-23 15:28:00,
2013-09-23 11:34:00,56.3,43.9,29.83,NNW,342,5.0,12.0,63,0.00,,,0.01,868,Wunderground v.1.15,2013-09-23 15:34:00,
2013-09-23 11:39:00,56.2,43.8,29.83,NNW,334,6.0,12.0,63,0.00,,,0.01,763,Wunderground v.1.15,2013-09-23 15:39:00,
2013-09-23 11:45:00,56.6,45.4,29.83,NNE,28,6.0,12.0,66,0.00,,,0.01,810,Wunderground v.1.15,2013-09-23 15:45:00,
2013-09-23 11:50:00,56.6,44.6,29.83,NNW,344,6.0,6.0,64,0.00,,,0.01,826,Wunderground v.1.15,2013-09-23 15:50:00,
2013-09-23 11:55:00,56.5,44.0,29.83,NW,310,5.0,7.0,63,0.00,,,0.01,332,Wunderground v.1.15,2013-09-23 15:55:00,
2013-09-23 12:00:00,55.9,43.9,29.83,WSW,246,5.0,5.0,64,0.00,,,0.01,260,Wunderground v.1.15,2013-09-23 16:00:00,
2013-09-23 12:05:00,56.1,44.9,29.84,NNW,340,5.0,5.0,66,0.00,,,0.01,865,Wunderground v.1.15,2013-09-23 16:05:00,
2013-09-23 12:10:00,57.0,44.5,29.83,North,355,4.0,4.0,63,0.00,,,0.01,956,Wunderground v.1.15,2013-09-23 16:10:00,
2013-09-23 12:15:00,57.3,45.2,29.83,North,355,4.0,9.0,64,0.00,,,0.01,329,Wunderground v.1.15,2013-09-23 16:15:00,
2013-09-23 12:20:00,57.5,45.0,29.84,NNE,24,4.0,4.0,63,0.00,,,0.01,332,Wunderground v.1.15,2013-09-23 16:20:00,
2013-09-23 12:25:00,57.3,44.0,29.84,NE,50,5.0,12.0,61,0.00,,,0.01,390,Wunderground v.1.15,2013-09-23 16:25:00,
2013-09-23 12:31:00,56.9,44.8,29.84,North,355,4.0,4.0,64,0.00,,,0.01,480,Wunderground v.1.15,2013-09-23 16:31:00,
2013-09-23 12:36:00,57.1,44.2,29.84,WNW,300,4.0,5.0,62,0.00,,,0.01,357,Wunderground v.1.15,2013-09-23 16:36:00,
2013-09-23 12:41:00,56.7,43.8,29.84,WNW,296,5.0,5.0,62,0.00,,,0.01,524,Wunderground v.1.15,2013-09-23 16:41:00,
2013-09-23 12:47:00,57.6,45.5,29.84,NW,320,6.0,9.0,64,0.00,,,0.01,933,Wunderground v.1.15,2013-09-23 16:47:00,
2013-09-23 12:53:00,58.1,45.1,29.84,NNW,329,4.0,5.0,62,0.00,,,0.01,329,Wunderground v.1.15,2013-09-23 16:53:00,
2013-09-23 12:58:00,58.0,44.6,29.84,NNE,19,4.0,8.0,61,0.00,,,0.01,348,Wunderground v.1.15,2013-09-23 16:58:00,
2013-09-23 13:04:00,57.5,44.6,29.84,SW,234,4.0,4.0,62,0.00,,,0.01,274,Wunderground v.1.15,2013-09-23 17:04:00,
2013-09-23 13:10:00,56.8,43.9,29.83,NNE,15,5.0,5.0,62,0.00,,,0.01,302,Wunderground v.1.15,2013-09-23 17:10:00,
2013-09-23 13:15:00,56.3,43.9,29.84,NW,313,6.0,9.0,63,0.00,,,0.01,262,Wunderground v.1.15,2013-09-23 17:15:00,
2013-09-23 13:21:00,56.2,44.2,29.84,NNW,344,6.0,6.0,64,0.00,,,0.01,301,Wunderground v.1.15,2013-09-23 17:21:00,
2013-09-23 13:26:00,56.1,44.1,29.83,North,355,5.0,10.0,64,0.00,,,0.01,253,Wunderground v.1.15,2013-09-23 17:26:00,
2013-09-23 13:31:00,56.0,44.0,29.84,NW,311,4.0,5.0,64,0.00,,,0.01,227,Wunderground v.1.15,2013-09-23 17:31:00,
2013-09-23 13:36:00,56.0,44.8,29.84,West,273,4.0,11.0,66,0.00,,,0.01,232,Wunderground v.1.15,2013-09-23 17:36:00,
2013-09-23 13:42:00,56.0,44.8,29.84,South,190,4.0,4.0,66,0.00,,,0.01,373,Wunderground v.1.15,2013-09-23 17:42:00,
2013-09-23 13:47:00,56.5,44.9,29.84,West,279,4.0,10.0,65,0.00,,,0.01,408,Wunderground v.1.15,2013-09-23 17:47:00,
2013-09-23 13:53:00,56.9,44.8,29.84,NNE,28,4.0,10.0,64,0.00,,,0.01,345,Wunderground v.1.15,2013-09-23 17:53:00,
2013-09-23 13:58:00,57.2,45.1,29.84,NW,306,4.0,10.0,64,0.00,,,0.01,311,Wunderground v.1.15,2013-09-23 17:58:00,
2013-09-23 14:04:00,56.9,44.0,29.84,West,277,4.0,8.0,62,0.00,,,0.01,292,Wunderground v.1.15,2013-09-23 18:04:00,
2013-09-23 14:10:00,56.5,44.0,29.84,North,349,5.0,12.0,63,0.00,,,0.01,418,Wunderground v.1.15,2013-09-23 18:10:00,
2013-09-23 14:15:00,56.6,44.1,29.84,NNW,333,5.0,14.0,63,0.00,,,0.01,299,Wunderground v.1.15,2013-09-23 18:15:00,
2013-09-23 14:21:00,56.3,44.3,29.84,West,275,5.0,5.0,64,0.00,,,0.01,302,Wunderground v.1.15,2013-09-23 18:21:00,
2013-09-23 14:26:00,56.6,44.1,29.84,NE,39,5.0,5.0,63,0.00,,,0.01,773,Wunderground v.1.15,2013-09-23 18:26:00,
2013-09-23 14:31:00,56.8,44.3,29.84,NNE,27,5.0,5.0,63,0.00,,,0.01,346,Wunderground v.1.15,2013-09-23 18:31:00,
2013-09-23 14:37:00,56.5,44.0,29.84,South,188,5.0,5.0,63,0.00,,,0.01,237,Wunderground v.1.15,2013-09-23 18:37:00,
2013-09-23 14:43:00,56.0,43.6,29.84,East,91,4.0,6.0,63,0.00,,,0.01,264,Wunderground v.1.15,2013-09-23 18:43:00,
2013-09-23 14:48:00,55.9,44.3,29.84,NNE,31,3.0,6.0,65,0.00,,,0.01,257,Wunderground v.1.15,2013-09-23 18:48:00,
2013-09-23 14:53:00,56.3,44.7,29.84,West,279,3.0,6.0,65,0.00,,,0.01,304,Wunderground v.1.15,2013-09-23 18:53:00,
2013-09-23 14:59:00,56.2,44.2,29.84,WNW,288,4.0,7.0,64,0.00,,,0.01,295,Wunderground v.1.15,2013-09-23 18:59:00,
2013-09-23 15:05:00,56.0,44.0,29.85,West,275,4.0,6.0,64,0.00,,,0.01,211,Wunderground v.1.15,2013-09-23 19:05:00,
2013-09-23 15:11:00,55.6,43.2,29.85,WNW,289,5.0,5.0,63,0.00,,,0.01,193,Wunderground v.1.15,2013-09-23 19:11:00,
2013-09-23 15:16:00,55.3,43.3,29.84,West,259,5.0,12.0,64,0.00,,,0.01,178,Wunderground v.1.15,2013-09-23 19:16:00,
2013-09-23 15:21:00,55.1,43.5,29.85,SSW,196,5.0,5.0,65,0.00,,,0.01,183,Wunderground v.1.15,2013-09-23 19:21:00,
2013-09-23 15:27:00,55.0,43.8,29.85,NE,53,4.0,5.0,66,0.00,,,0.01,186,Wunderground v.1.15,2013-09-23 19:27:00,
2013-09-23 15:32:00,55.0,43.4,29.85,NE,49,4.0,5.0,65,0.00,,,0.01,165,Wunderground v.1.15,2013-09-23 19:32:00,
2013-09-23 15:37:00,55.0,43.4,29.85,WNW,298,3.0,5.0,65,0.00,,,0.01,178,Wunderground v.1.15,2013-09-23 19:37:00,
2013-09-23 15:43:00,55.0,43.8,29.85,NW,323,3.0,5.0,66,0.00,,,0.01,155,Wunderground v.1.15,2013-09-23 19:43:00,
2013-09-23 15:48:00,54.9,43.7,29.85,NNW,327,3.0,5.0,66,0.00,,,0.01,149,Wunderground v.1.15,2013-09-23 19:48:00,
2013-09-23 15:53:00,54.8,43.7,29.85,NNE,30,3.0,3.0,66,0.00,,,0.01,160,Wunderground v.1.15,2013-09-23 19:53:00,
2013-09-23 15:58:00,54.7,43.6,29.85,East,87,4.0,9.0,66,0.00,,,0.01,123,Wunderground v.1.15,2013-09-23 19:58:00,
2013-09-23 16:03:00,54.6,43.1,29.85,WNW,290,4.0,5.0,65,0.00,,,0.01,121,Wunderground v.1.15,2013-09-23 20:03:00,
2013-09-23 16:09:00,54.6,43.5,29.85,NW,311,3.0,5.0,66,0.00,,,0.01,132,Wunderground v.1.15,2013-09-23 20:09:00,
2013-09-23 16:14:00,54.5,43.4,29.85,NE,37,3.0,11.0,66,0.00,,,0.01,121,Wunderground v.1.15,2013-09-23 20:14:00,
2013-09-23 16:19:00,54.5,43.8,29.85,NW,319,3.0,11.0,67,0.00,,,0.01,135,Wunderground v.1.15,2013-09-23 20:19:00,
2013-09-23 16:25:00,54.6,43.9,29.85,SW,236,2.0,6.0,67,0.00,,,0.01,135,Wunderground v.1.15,2013-09-23 20:25:00,
2013-09-23 16:30:00,54.7,43.6,29.85,North,9,2.0,2.0,66,0.00,,,0.01,121,Wunderground v.1.15,2013-09-23 20:30:00,
2013-09-23 16:36:00,54.8,43.7,29.85,NE,40,2.0,8.0,66,0.00,,,0.01,102,Wunderground v.1.15,2013-09-23 20:36:00,
2013-09-23 16:41:00,54.7,43.2,29.86,NW,321,2.0,4.0,65,0.00,,,0.01,107,Wunderground v.1.15,2013-09-23 20:41:00,
2013-09-23 16:46:00,54.6,43.1,29.86,NW,315,3.0,4.0,65,0.00,,,0.01,128,Wunderground v.1.15,2013-09-23 20:46:00,
2013-09-23 16:52:00,54.6,43.5,29.86,NW,304,3.0,4.0,66,0.00,,,0.01,114,Wunderground v.1.15,2013-09-23 20:52:00,
2013-09-23 16:57:00,54.5,42.6,29.86,NNE,16,3.0,4.0,64,0.00,,,0.01,81,Wunderground v.1.15,2013-09-23 20:57:00,
2013-09-23 17:02:00,54.4,42.9,29.87,West,278,3.0,6.0,65,0.00,,,0.01,79,Wunderground v.1.15,2013-09-23 21:02:00,
2013-09-23 17:07:00,54.3,43.2,29.87,NNW,331,3.0,8.0,66,0.00,,,0.01,74,Wunderground v.1.15,2013-09-23 21:07:00,
2013-09-23 17:12:00,54.2,42.7,29.87,WSW,254,3.0,6.0,65,0.00,,,0.01,63,Wunderground v.1.15,2013-09-23 21:12:00,
2013-09-23 17:17:00,54.1,43.0,29.87,NNE,14,3.0,6.0,66,0.00,,,0.01,58,Wunderground v.1.15,2013-09-23 21:17:00,
2013-09-23 17:22:00,54.0,43.3,29.87,WNW,301,2.0,2.0,67,0.00,,,0.01,54,Wunderground v.1.15,2013-09-23 21:22:00,
2013-09-23 17:28:00,53.9,43.2,29.87,WSW,243,3.0,6.0,67,0.00,,,0.01,54,Wunderground v.1.15,2013-09-23 21:28:00,
2013-09-23 17:33:00,53.8,43.9,29.88,WNW,298,3.0,4.0,69,0.00,,,0.01,46,Wunderground v.1.15,2013-09-23 21:33:00,
2013-09-23 17:38:00,53.7,43.8,29.88,NNW,337,2.0,5.0,69,0.00,,,0.01,42,Wunderground v.1.15,2013-09-23 21:38:00,
2013-09-23 17:44:00,53.5,43.6,29.88,WNW,302,2.0,3.0,69,0.00,,,0.01,40,Wunderground v.1.15,2013-09-23 21:44:00,
2013-09-23 17:50:00,53.5,43.2,29.88,NNW,348,2.0,2.0,68,0.00,,,0.01,32,Wunderground v.1.15,2013-09-23 21:50:00,
2013-09-23 17:56:00,53.3,42.6,29.88,NW,315,3.0,11.0,67,0.00,,,0.01,33,Wunderground v.1.15,2013-09-23 21:56:00,
2013-09-23 18:01:00,53.2,42.5,29.88,North,360,4.0,11.0,67,0.00,,,0.01,26,Wunderground v.1.15,2013-09-23 22:01:00,
2013-09-23 18:06:00,53.0,42.3,29.89,North,5,4.0,11.0,67,0.00,,,0.01,18,Wunderground v.1.15,2013-09-23 22:06:00,
2013-09-23 18:11:00,52.9,42.6,29.89,NE,49,4.0,5.0,68,0.00,,,0.01,11,Wunderground v.1.15,2013-09-23 22:11:00,
2013-09-23 18:16:00,52.8,42.5,29.89,North,10,3.0,7.0,68,0.00,,,0.01,7,Wunderground v.1.15,2013-09-23 22:16:00,
2013-09-23 18:22:00,52.7,42.8,29.89,North,355,2.0,3.0,69,0.00,,,0.01,5,Wunderground v.1.15,2013-09-23 22:22:00,
2013-09-23 18:27:00,52.6,42.3,29.89,North,360,2.0,9.0,68,0.00,,,0.01,0,Wunderground v.1.15,2013-09-23 22:27:00,
2013-09-23 18:33:00,52.5,42.2,29.90,NNW,341,3.0,5.0,68,0.00,,,0.01,0,Wunderground v.1.15,2013-09-23 22:33:00,
2013-09-23 18:38:00,52.4,42.5,29.90,NW,323,2.0,5.0,69,0.00,,,0.01,0,Wunderground v.1.15,2013-09-23 22:38:00,
2013-09-23 18:43:00,52.3,42.4,29.90,North,355,3.0,6.0,69,0.00,,,0.01,0,Wunderground v.1.15,2013-09-23 22:43:00,
2013-09-23 18:48:00,52.3,42.4,29.90,WNW,300,3.0,6.0,69,0.00,,,0.01,0,Wunderground v.1.15,2013-09-23 22:48:00,
2013-09-23 18:53:00,52.2,42.3,29.90,NW,320,3.0,3.0,69,0.00,,,0.01,0,Wunderground v.1.15,2013-09-23 22:53:00,
2013-09-23 18:59:00,52.1,42.6,29.90,North,9,3.0,5.0,70,0.00,,,0.01,0,Wunderground v.1.15,2013-09-23 22:59:00,
2013-09-23 19:05:00,52.0,42.5,29.90,WNW,299,3.0,4.0,70,0.00,,,0.01,0,Wunderground v.1.15,2013-09-23 23:05:00,
2013-09-23 19:11:00,51.9,42.8,29.90,NNE,28,2.0,2.0,71,0.00,,,0.01,0,Wunderground v.1.15,2013-09-23 23:11:00,
2013-09-23 19:16:00,51.9,42.8,29.90,NNW,334,1.0,6.0,71,0.00,,,0.01,0,Wunderground v.1.15,2013-09-23 23:16:00,
2013-09-23 19:22:00,51.8,42.7,29.90,WNW,299,2.0,4.0,71,0.00,,,0.01,0,Wunderground v.1.15,2013-09-23 23:22:00,
2013-09-23 19:27:00,51.7,42.6,29.91,NNW,342,2.0,4.0,71,0.00,,,0.01,0,Wunderground v.1.15,2013-09-23 23:27:00,
2013-09-23 19:33:00,51.6,42.5,29.91,North,355,2.0,7.0,71,0.00,,,0.01,0,Wunderground v.1.15,2013-09-23 23:33:00,
2013-09-23 19:38:00,51.6,42.5,29.91,North,355,3.0,7.0,71,0.00,,,0.01,0,Wunderground v.1.15,2013-09-23 23:38:00,
2013-09-23 19:43:00,51.5,42.4,29.91,North,360,3.0,3.0,71,0.00,,,0.01,0,Wunderground v.1.15,2013-09-23 23:43:00,
2013-09-23 19:48:00,51.5,42.8,29.91,WNW,297,2.0,3.0,72,0.00,,,0.01,0,Wunderground v.1.15,2013-09-23 23:48:00,
2013-09-23 19:53:00,51.5,42.8,29.91,WNW,288,1.0,2.0,72,0.00,,,0.01,0,Wunderground v.1.15,2013-09-23 23:53:00,
2013-09-23 19:58:00,51.4,42.7,29.91,NNW,348,2.0,4.0,72,0.00,,,0.01,0,Wunderground v.1.15,2013-09-23 23:58:00,
2013-09-23 20:04:00,51.3,42.9,29.91,NNE,14,2.0,2.0,73,0.00,,,0.01,0,Wunderground v.1.15,2013-09-24 00:04:00,
2013-09-23 20:09:00,51.3,42.6,29.91,North,9,2.0,2.0,72,0.00,,,0.01,0,Wunderground v.1.15,2013-09-24 00:09:00,
2013-09-23 20:14:00,51.3,42.9,29.91,NNW,348,2.0,2.0,73,0.00,,,0.01,0,Wunderground v.1.15,2013-09-24 00:14:00,
2013-09-23 20:19:00,51.2,42.8,29.91,ENE,63,1.0,4.0,73,0.00,,,0.01,0,Wunderground v.1.15,2013-09-24 00:19:00,
2013-09-23 20:25:00,51.2,42.8,29.91,WNW,298,2.0,6.0,73,0.00,,,0.01,0,Wunderground v.1.15,2013-09-24 00:25:00,
2013-09-23 20:30:00,51.1,42.7,29.91,WNW,283,2.0,2.0,73,0.00,,,0.01,0,Wunderground v.1.15,2013-09-24 00:30:00,
2013-09-23 20:36:00,51.1,43.1,29.91,WNW,289,1.0,2.0,74,0.00,,,0.01,0,Wunderground v.1.15,2013-09-24 00:36:00,
2013-09-23 20:41:00,51.0,43.0,29.91,WSW,257,1.0,1.0,74,0.00,,,0.01,0,Wunderground v.1.15,2013-09-24 00:41:00,
2013-09-23 20:47:00,51.0,43.0,29.91,WNW,291,1.0,4.0,74,0.00,,,0.01,0,Wunderground v.1.15,2013-09-24 00:47:00,
2013-09-23 20:52:00,50.9,42.9,29.91,West,279,1.0,1.0,74,0.00,,,0.01,0,Wunderground v.1.15,2013-09-24 00:52:00,
2013-09-23 20:57:00,50.8,42.8,29.90,WNW,294,1.0,2.0,74,0.00,,,0.01,0,Wunderground v.1.15,2013-09-24 00:57:00,
2013-09-23 21:03:00,50.8,42.8,29.90,West,269,1.0,4.0,74,0.00,,,0.01,0,Wunderground v.1.15,2013-09-24 01:03:00,
2013-09-23 21:09:00,50.7,42.7,29.91,NE,44,2.0,4.0,74,0.00,,,0.01,0,Wunderground v.1.15,2013-09-24 01:09:00,
2013-09-23 21:15:00,50.6,43.0,29.90,North,355,1.0,2.0,75,0.00,,,0.01,0,Wunderground v.1.15,2013-09-24 01:15:00,
2013-09-23 21:20:00,50.6,43.0,29.91,NE,38,1.0,1.0,75,0.00,,,0.01,0,Wunderground v.1.15,2013-09-24 01:20:00,
2013-09-23 21:26:00,50.5,42.9,29.91,WNW,283,1.0,1.0,75,0.00,,,0.01,0,Wunderground v.1.15,2013-09-24 01:26:00,
2013-09-23 21:32:00,50.4,42.8,29.90,NNW,348,1.0,2.0,75,0.00,,,0.01,0,Wunderground v.1.15,2013-09-24 01:32:00,
2013-09-23 21:37:00,50.3,42.7,29.90,WNW,302,1.0,2.0,75,0.00,,,0.01,0,Wunderground v.1.15,2013-09-24 01:37:00,
2013-09-23 21:42:00,50.3,43.0,29.90,NW,309,1.0,1.0,76,0.00,,,0.01,0,Wunderground v.1.15,2013-09-24 01:42:00,
2013-09-23 21:47:00,50.2,42.9,29.90,West,277,0.0,1.0,76,0.00,,,0.01,0,Wunderground v.1.15,2013-09-24 01:47:00,
2013-09-23 21:53:00,50.1,42.8,29.91,WNW,286,1.0,3.0,76,0.00,,,0.01,0,Wunderground v.1.15,2013-09-24 01:53:00,
2013-09-23 21:58:00,50.0,42.7,29.90,West,267,1.0,4.0,76,0.00,,,0.01,0,Wunderground v.1.15,2013-09-24 01:58:00,
2013-09-23 22:03:00,50.0,42.7,29.90,West,269,1.0,2.0,76,0.00,,,0.01,0,Wunderground v.1.15,2013-09-24 02:03:00,
2013-09-23 22:09:00,50.0,42.7,29.91,WNW,285,0.0,2.0,76,0.00,,,0.01,0,Wunderground v.1.15,2013-09-24 02:09:00,
2013-09-23 22:14:00,50.0,43.1,29.91,WNW,285,0.0,0.0,77,0.00,,,0.01,0,Wunderground v.1.15,2013-09-24 02:14:00,
2013-09-23 22:19:00,50.0,43.1,29.90,WSW,254,0.0,0.0,77,0.00,,,0.01,0,Wunderground v.1.15,2013-09-24 02:19:00,
2013-09-23 22:25:00,50.0,43.4,29.91,WSW,254,0.0,0.0,78,0.00,,,0.01,0,Wunderground v.1.15,2013-09-24 02:25:00,
2013-09-23 22:31:00,49.9,43.3,29.90,WSW,238,0.0,0.0,78,0.00,,,0.01,0,Wunderground v.1.15,2013-09-24 02:31:00,
2013-09-23 22:37:00,49.9,43.3,29.91,WSW,238,0.0,0.0,78,0.00,,,0.01,0,Wunderground v.1.15,2013-09-24 02:37:00,
2013-09-23 22:43:00,49.8,43.2,29.91,WSW,238,0.0,0.0,78,0.00,,,0.01,0,Wunderground v.1.15,2013-09-24 02:43:00,
2013-09-23 22:48:00,49.8,43.2,29.90,West,277,0.0,0.0,78,0.00,,,0.01,0,Wunderground v.1.15,2013-09-24 02:48:00,
2013-09-23 22:53:00,49.8,43.2,29.90,WNW,286,0.0,3.0,78,0.00,,,0.01,0,Wunderground v.1.15,2013-09-24 02:53:00,
2013-09-23 22:59:00,49.8,43.2,29.91,WNW,285,0.0,3.0,78,0.00,,,0.01,0,Wunderground v.1.15,2013-09-24 02:59:00,
2013-09-23 23:04:00,49.7,43.5,29.91,NW,306,0.0,0.0,79,0.00,,,0.01,0,Wunderground v.1.15,2013-09-24 03:04:00,
2013-09-23 23:10:00,49.7,43.5,29.91,WSW,248,0.0,0.0,79,0.00,,,0.01,0,Wunderground v.1.15,2013-09-24 03:10:00,
2013-09-23 23:16:00,49.7,43.5,29.91,WNW,294,0.0,2.0,79,0.00,,,0.01,0,Wunderground v.1.15,2013-09-24 03:16:00,
2013-09-23 23:21:00,49.7,43.5,29.91,WNW,289,0.0,4.0,79,0.00,,,0.01,0,Wunderground v.1.15,2013-09-24 03:21:00,
2013-09-23 23:26:00,49.7,43.5,29.91,WNW,289,0.0,4.0,79,0.00,,,0.01,0,Wunderground v.1.15,2013-09-24 03:26:00,
2013-09-23 23:32:00,49.7,43.5,29.91,West,274,0.0,0.0,79,0.00,,,0.01,0,Wunderground v.1.15,2013-09-24 03:32:00,
2013-09-23 23:37:00,49.7,43.5,29.91,SW,221,0.0,0.0,79,0.00,,,0.01,0,Wunderground v.1.15,2013-09-24 03:37:00,
2013-09-23 23:43:00,49.7,43.5,29.91,SW,221,0.0,0.0,79,0.00,,,0.01,0,Wunderground v.1.15,2013-09-24 03:43:00,
2013-09-23 23:49:00,49.6,43.4,29.90,West,261,0.0,1.0,79,0.00,,,0.01,0,Wunderground v.1.15,2013-09-24 03:49:00,
2013-09-23 23:54:00,49.6,43.7,29.90,West,261,0.0,0.0,80,0.00,,,0.01,0,Wunderground v.1.15,2013-09-24 03:54:00,
2013-09-23 23:59:00,49.6,43.7,29.90,WNW,290,0.0,0.0,80,0.00,,,0.00,0,Wunderground v.1.15,2013-09-24 03:59:00,